Regional Weather Roundup
Issued by NWS

Home | Current Version | Previous Version | Graphics & Text | Print | Product List | Glossary On
Versions: 1 2 3 4 5 6 7 8 9 10 11 12 13 14 15 16 17 18 19 20 21 22 23 24 25 26 27 28 29 30 31 32 33 34 35 36 37 38 39 40 41 42 43 44 45 46 47 48 49 50
000
ASUS43 KOAX 220202
RWRNE

WEATHER ROUNDUP FOR NEBRASKA
NATIONAL WEATHER SERVICE OMAHA NE
900 PM CDT THU AUG 21 2014

NOTES: SATELLITE DATA IS BEING USED TO AUGMENT CLOUD COVER ABOVE
       12000 FEET.
       "FAIR" INDICATES FEW OR NO CLOUDS BELOW 12,000 FEET WITH NO
       SIGNIFICANT WEATHER AND/OR OBSTRUCTIONS TO VISIBILITY.

  * THESE STATIONS DO NOT REPORT WEATHER SUCH AS RAIN...SNOW OR FOG.

NEZ001>004-019>022-054>056-220300-
NEBRASKA PANHANDLE

CITY           SKY/WX    TMP DP  RH WIND       PRES   REMARKS
SCOTTSBLUFF    CLOUDY    80  50  34 W7        30.02R
ALLIANCE       PTCLDY    76  50  40 S7        29.99R
CHADRON        CLEAR     77  54  44 SE10      29.93R
KIMBALL        RAIN      73  54  51 S3        30.08R
SIDNEY         PTCLDY    75  51  43 NE5       30.05R
$$

NEZ057>060-069>072-079>082-220300-
SOUTHWEST NEBRASKA

CITY           SKY/WX    TMP DP  RH WIND       PRES   REMARKS
NORTH PLATTE   PTCLDY    74  62  66 NE7       29.93R
IMPERIAL       CLEAR     83  56  39 CALM      29.96R
LEXINGTON      CLEAR     78  72  82 NE6       29.92R
MCCOOK         CLEAR     81  66  60 E8        29.91R
OGALLALA       PTCLDY    76  60  56 E3        29.97R
$$

NEZ005>010-023>029-035>040-094-220300-
NORTH CENTRAL NEBRASKA

CITY           SKY/WX    TMP DP  RH WIND       PRES   REMARKS
VALENTINE      PTCLDY    80  58  46 N6        29.94R
AINSWORTH      PTCLDY    73  65  74 NE5       29.94R
BROKEN BOW     PTCLDY    74  69  85 CALM      29.93R
O`NEILL        CLEAR     77  66  68 NE3       29.91R
ORD            CLEAR     78  69  73 N5        29.90R
THEDFORD       PTCLDY    75  63  65 NE3       29.96R
$$

NEZ041-046>049-061>064-073>077-083>087-220300-
SOUTH CENTRAL NEBRASKA

CITY           SKY/WX    TMP DP  RH WIND       PRES   REMARKS
GRAND ISLAND   PTCLDY    79  73  82 E5        29.88R
AURORA         MOCLDY    80  71  74 SE14G22   29.91R THUNDER
HASTINGS       MOCLDY    80  64  58 S8        29.91R
HEBRON         CLOUDY    77  68  74 CALM      29.88R
HOLDREGE       PTCLDY    80  74  82 CALM      29.92R
KEARNEY *      PTCLDY    79  73  83 N5        29.91R
YORK           TSTM      73 N/A N/A SW31G49   29.93R
$$

NEZ011>018-030>034-042>045-220300-
NORTHEAST NEBRASKA

CITY           SKY/WX    TMP DP  RH WIND       PRES   REMARKS
NORFOLK        PTCLDY    83  73  72 CALM      29.87R
ALBION         CLEAR     79  72  79 CALM      29.89R
BLAIR          CLEAR     83  72  68 CALM      29.86R
FREMONT        CLEAR     83  72  68 CALM      29.85R
TEKAMAH        CLEAR     78  74  87 S6        29.84R
WAYNE          MOCLDY    79  75  89 CALM      29.87R
$$

NEZ050>053-065>068-078-088>093-220300-
SOUTHEAST NEBRASKA

CITY           SKY/WX    TMP DP  RH WIND       PRES   REMARKS
LINCOLN        CLOUDY    84  72  67 NE6       29.85R
OMAHA EPPLEY   PTCLDY    84  74  71 SE5       29.85R HX  91
BEATRICE       CLOUDY    80  77  88 E7        29.84S
FALLS CITY     PTCLDY    85  79  82 NW3       29.83R HX  98
NEBRASKA CITY  CLEAR     79  77  95 NE5       29.85R
PLATTSMOUTH    CLEAR     81  74  79 E3        29.85R
$$

NEZ044-045-051>053-067-220300-
OMAHA AREA

CITY           SKY/WX    TMP DP  RH WIND       PRES   REMARKS
OMAHA EPPLEY   PTCLDY    84  74  71 SE5       29.85R HX  91
BLAIR          CLEAR     83  72  68 CALM      29.86R
FREMONT        CLEAR     83  72  68 CALM      29.85R
MILLARD        PTCLDY    84  74  71 SE3       29.84R HX  91
OFFUTT AFB     CLEAR     79  78  99 E5        29.84R
PLATTSMOUTH    CLEAR     81  74  79 E3        29.85R
WAHOO          FAIR      80  73  79 NE6       29.84S
$$


USA.gov is the U.S. government's official web portal to all federal, state and local government web resources and services.